GAOFEN-12 02

Last updated on Thu Oct 30 2025 00:02:32 GMT+0000 (Coordinated Universal Time)

1 48079U 21026A 25302.54393560 .00000767 00000+0 10683-3 0 9996 2 48079 97.9840 296.7678 0000892 227.9422 132.1714 14.80594473247635
UTC large
Height (km)
Speed (km/s)
/
Latitude / Longitude
Inclination (degrees)
Orbital Period (minutes)
Azimuth
Elevation
Range (km)
Doppler Factor

Next 0 passes for location: London (51.5072 / 0.1276)

Sorry there are no passes over London.